Location: Monroe
(41.3286°N, 74.1872°W)
Time: 02:40:45
(UTC+00:00)

ARIANE 6 FM1 Upper Stage - Pass Details

Date: 23 January 2026
Orbit: 522 x 609 km, 62.0° (Epoch: 10 February)

Event Time Altitude Azimuth Distance (km) Brightness Sun altitude
Rises 23:56:01 0° 226° (SW) 2,715 7.0 -21.5°
Reaches altitude 10° 23:58:17 10° 230° (SW) 1,810 6.0 -21.9°
Maximum altitude 00:02:17 57° 310° (NW) 639 3.0 -22.6°
Enters shadow 00:03:00 48° 352° (N) 706 3.1 -22.8°
